Previsão horária em Celinnyy

Hoje, 1 Agosto, Domingo

Tempo Temperatura Precipitação Vento Pressão Humidade
00:00 +21°C° 0 mm 3 m/s 726 mmHg 64%
01:00 +21°C° 0 mm 2 m/s 726 mmHg 62%
02:00 +21°C° 0 mm 3 m/s 726 mmHg 64%
03:00 +20°C° 0 mm 3 m/s 727 mmHg 66%
04:00 +20°C° 0 mm 3 m/s 727 mmHg 70%
05:00 +21°C° 0 mm 3 m/s 727 mmHg 66%
06:00 +24°C° 0 mm 3 m/s 727 mmHg 63%
07:00 +25°C° 0 mm 3 m/s 727 mmHg 60%
08:00 +27°C° 0 mm 4 m/s 728 mmHg 53%
09:00 +29°C° 0 mm 5 m/s 728 mmHg 47%
10:00 +32°C° 0 mm 6 m/s 728 mmHg 40%
11:00 +32°C° 0 mm 6 m/s 728 mmHg 38%
12:00 +33°C° 0 mm 6 m/s 728 mmHg 35%
13:00 +34°C° 0 mm 6 m/s 728 mmHg 32%
14:00 +33°C° 0 mm 6 m/s 728 mmHg 35%
15:00 +32°C° 0 mm 6 m/s 728 mmHg 38%
16:00 +32°C° 0 mm 6 m/s 728 mmHg 37%
17:00 +30°C° 0 mm 5 m/s 728 mmHg 41%
18:00 +29°C° 0 mm 4 m/s 728 mmHg 46%
19:00 +27°C° 0 mm 3 m/s 728 mmHg 51%
20:00 +26°C° 0 mm 3 m/s 728 mmHg 55%
21:00 +24°C° 0 mm 2 m/s 729 mmHg 60%
22:00 +22°C° 0 mm 1 m/s 729 mmHg 64%
23:00 +22°C° 0 mm 1 m/s 729 mmHg 64%

Amanhã, 2 Agosto, Segunda-feira

Tempo Temperatura Precipitação Vento Pressão Humidade
00:00 +21°C° 0 mm 1 m/s 729 mmHg 63%
01:00 +21°C° 0 mm 1 m/s 729 mmHg 62%
02:00 +20°C° 0 mm 1 m/s 729 mmHg 61%
03:00 +20°C° 0 mm 1 m/s 729 mmHg 60%
04:00 +20°C° 0 mm 1 m/s 729 mmHg 59%
05:00 +20°C° 0 mm 2 m/s 729 mmHg 55%
06:00 +23°C° 0 mm 2 m/s 730 mmHg 51%
07:00 +24°C° 0 mm 2 m/s 730 mmHg 47%
08:00 +26°C° 0 mm 3 m/s 730 mmHg 42%
09:00 +28°C° 0 mm 5 m/s 730 mmHg 37%
10:00 +30°C° 0 mm 6 m/s 730 mmHg 32%
11:00 +32°C° 0 mm 6 m/s 730 mmHg 30%
12:00 +32°C° 0 mm 6 m/s 730 mmHg 29%
13:00 +33°C° 0 mm 6 m/s 730 mmHg 27%
14:00 +33°C° 0 mm 5 m/s 730 mmHg 27%
15:00 +33°C° 0 mm 5 m/s 730 mmHg 27%
16:00 +33°C° 0 mm 5 m/s 730 mmHg 27%
17:00 +30°C° 0 mm 4 m/s 730 mmHg 32%
18:00 +29°C° 0 mm 3 m/s 730 mmHg 37%
19:00 +27°C° 0 mm 3 m/s 730 mmHg 43%
20:00 +25°C° 0 mm 2 m/s 730 mmHg 46%
21:00 +24°C° 0 mm 1 m/s 730 mmHg 50%
22:00 +22°C° 0 mm 1 m/s 730 mmHg 53%
23:00 +22°C° 0 mm 1 m/s 730 mmHg 54%

Depois de amanhã, 3 Agosto, Terça-feira

Tempo Temperatura Precipitação Vento Pressão Humidade
00:00 +21°C° 0 mm 1 m/s 730 mmHg 56%
01:00 +19°C° 0 mm 0 m/s 730 mmHg 57%
02:00 +21°C° 0 mm 1 m/s 730 mmHg 58%
03:00 +20°C° 0 mm 1 m/s 730 mmHg 58%
04:00 +20°C° 0 mm 1 m/s 730 mmHg 59%
05:00 +22°C° 0 mm 1 m/s 730 mmHg 54%
06:00 +23°C° 0 mm 1 m/s 730 mmHg 50%
07:00 +25°C° 0 mm 2 m/s 731 mmHg 46%
08:00 +27°C° 0 mm 2 m/s 730 mmHg 40%
09:00 +30°C° 0 mm 3 m/s 730 mmHg 34%
10:00 +33°C° 0 mm 3 m/s 730 mmHg 28%
11:00 +34°C° 0 mm 3 m/s 730 mmHg 25%
12:00 +35°C° 0 mm 3 m/s 730 mmHg 23%
13:00 +36°C° 0 mm 4 m/s 730 mmHg 20%
14:00 +36°C° 0 mm 4 m/s 729 mmHg 20%
15:00 +36°C° 0 mm 4 m/s 729 mmHg 21%
16:00 +36°C° 0 mm 4 m/s 729 mmHg 21%
17:00 +34°C° 0 mm 3 m/s 729 mmHg 26%
18:00 +33°C° 0 mm 3 m/s 729 mmHg 31%
19:00 +30°C° 0 mm 2 m/s 729 mmHg 37%
20:00 +28°C° 0 mm 2 m/s 729 mmHg 40%
21:00 +26°C° 0 mm 1 m/s 729 mmHg 43%
22:00 +22°C° 0 mm 0 m/s 729 mmHg 46%
23:00 +22°C° 0 mm 0 m/s 729 mmHg 47%

4 Agosto, Quarta-feira

Tempo Temperatura Precipitação Vento Pressão Humidade
00:00 +21°C° 0 mm 0 m/s 729 mmHg 48%
01:00 +21°C° 0 mm 0 m/s 729 mmHg 49%
02:00 +21°C° 0 mm 0 m/s 729 mmHg 49%
03:00 +21°C° 0 mm 0 m/s 729 mmHg 49%
04:00 +21°C° 0 mm 0 m/s 729 mmHg 49%
05:00 +24°C° 0 mm 1 m/s 729 mmHg 47%
06:00 +25°C° 0 mm 1 m/s 729 mmHg 44%
07:00 +26°C° 0 mm 1 m/s 729 mmHg 42%
08:00 +29°C° 0 mm 1 m/s 729 mmHg 37%
09:00 +31°C° 0 mm 2 m/s 729 mmHg 33%
10:00 +34°C° 0 mm 2 m/s 729 mmHg 28%
11:00 +35°C° 0 mm 2 m/s 729 mmHg 25%
12:00 +37°C° 0 mm 2 m/s 728 mmHg 22%
13:00 +38°C° 0 mm 2 m/s 728 mmHg 19%
14:00 +38°C° 0 mm 3 m/s 728 mmHg 19%
15:00 +38°C° 0 mm 3 m/s 728 mmHg 19%
16:00 +38°C° 0 mm 4 m/s 727 mmHg 19%
17:00 +34°C° 0.1 mm 3 m/s 728 mmHg 31%
18:00 +29°C° 0.1 mm 2 m/s 728 mmHg 42%
19:00 +26°C° 0.1 mm 2 m/s 729 mmHg 53%
20:00 +25°C° 0 mm 2 m/s 729 mmHg 54%
21:00 +25°C° 0 mm 2 m/s 728 mmHg 55%
22:00 +24°C° 0 mm 2 m/s 728 mmHg 56%
23:00 +24°C° 0 mm 2 m/s 728 mmHg 55%

5 Agosto, Quinta-feira

Tempo Temperatura Precipitação Vento Pressão Humidade
00:00 +24°C° 0 mm 3 m/s 728 mmHg 54%
01:00 +22°C° 0 mm 3 m/s 727 mmHg 53%
02:00 +23°C° 0 mm 2 m/s 727 mmHg 55%
03:00 +23°C° 0 mm 2 m/s 727 mmHg 56%
04:00 +21°C° 0 mm 2 m/s 727 mmHg 57%
05:00 +24°C° 0 mm 2 m/s 727 mmHg 55%
06:00 +25°C° 0 mm 2 m/s 727 mmHg 52%
07:00 +26°C° 0 mm 2 m/s 727 mmHg 49%
08:00 +27°C° 0.1 mm 2 m/s 727 mmHg 46%
09:00 +28°C° 0.1 mm 2 m/s 727 mmHg 42%
10:00 +30°C° 0.1 mm 2 m/s 727 mmHg 38%
11:00 +31°C° 0 mm 3 m/s 727 mmHg 35%
12:00 +34°C° 0 mm 3 m/s 727 mmHg 31%
13:00 +35°C° 0 mm 4 m/s 727 mmHg 27%
14:00 +32°C° 0.8 mm 6 m/s 727 mmHg 39%
15:00 +28°C° 0.8 mm 8 m/s 727 mmHg 51%
16:00 +24°C° 0.8 mm 10 m/s 728 mmHg 63%
17:00 +23°C° 0.3 mm 7 m/s 727 mmHg 64%
18:00 +23°C° 0.3 mm 5 m/s 727 mmHg 65%
19:00 +22°C° 0.3 mm 3 m/s 727 mmHg 65%
20:00 +21°C° 0.1 mm 2 m/s 727 mmHg 70%
21:00 +20°C° 0.1 mm 2 m/s 727 mmHg 75%
22:00 +19°C° 0.1 mm 2 m/s 727 mmHg 79%
23:00 +20°C° 0.1 mm 1 m/s 727 mmHg 79%

6 Agosto, Sexta-feira

Tempo Temperatura Precipitação Vento Pressão Humidade
00:00 +20°C° 0.1 mm 1 m/s 727 mmHg 78%
01:00 +18°C° 0.1 mm 0 m/s 727 mmHg 78%
02:00 +20°C° 0 mm 1 m/s 727 mmHg 79%
03:00 +19°C° 0 mm 1 m/s 727 mmHg 80%
04:00 +19°C° 0 mm 1 m/s 727 mmHg 82%
05:00 +20°C° 0 mm 1 m/s 727 mmHg 81%
06:00 +20°C° 0 mm 1 m/s 727 mmHg 80%
07:00 +21°C° 0 mm 1 m/s 727 mmHg 79%
08:00 +21°C° 0 mm 2 m/s 727 mmHg 72%
09:00 +24°C° 0 mm 3 m/s 728 mmHg 66%
10:00 +25°C° 0 mm 4 m/s 728 mmHg 60%
11:00 +26°C° 0 mm 4 m/s 728 mmHg 59%
12:00 +26°C° 0 mm 5 m/s 728 mmHg 57%
13:00 +26°C° 0 mm 5 m/s 728 mmHg 56%
14:00 +26°C° 0.2 mm 5 m/s 728 mmHg 56%
15:00 +26°C° 0.2 mm 5 m/s 728 mmHg 57%
16:00 +26°C° 0.2 mm 5 m/s 728 mmHg 57%
17:00 +25°C° 0.1 mm 5 m/s 729 mmHg 60%
18:00 +23°C° 0.1 mm 4 m/s 729 mmHg 63%
19:00 +22°C° 0.1 mm 4 m/s 729 mmHg 67%
20:00 +21°C° 0 mm 4 m/s 729 mmHg 67%
21:00 +20°C° 0 mm 3 m/s 729 mmHg 68%
22:00 +19°C° 0 mm 3 m/s 729 mmHg 69%
23:00 +19°C° 0 mm 3 m/s 729 mmHg 63%
Mostrar mais

Necessitamos do seu Consentimento

A Meteoprog e os seus Fornecedores de Serviços podem armazenar e aceder a dados pessoais como cookies, identificadores do dispositivo ou outras tecnologias semelhantes existentes no seu dispositivo e processar estes dados para personalizar conteúdos e anúncios, assim como funcionalidades nas redes sociais e análise de tráfego.

  • Armazenar e/ou aceder a informações no seu dispositivo

    Os cookies, identificadores do dispositivo ou outras informações podem ser armazenados ou acedidos no seu dispositivo, para os fins acima indicados.

  • Anúncios e conteúdos personalizados, medição de anúncios e conteúdos, dados sobre o público-alvo e desenvolvimento de produtos

    Os anúncios e os conteúdos podem ser personalizados com base num perfil. Podem ser adicionados dados adicionais para uma maior personalização dos anúncios e dos conteúdos. A eficácia dos anúncios e dos conteúdos pode ser medida. Podem ser obtidas informações sobre o público que visualizou os anúncios e os conteúdos. Estes dados podem ser usados para desenvolver ou melhorar sistemas, softwares ou a experiência do utilizador.

Ao clicar em "Eu concordo”, permitirá o uso de cookies, identificadores do dispositivo e web beacons mencionados ou outras tecnologias semelhantes. As configurações do navegador do seu dispositivo podem ser alteradas.

Para certos fins, podem ser invocados interesses legítimos ao invés de consentimento. Pode ler mais informação sobre este assunto na nossa Política de Privacidade e Cookies.